Weather History for PAEI - July, 2013

Change the Weather History Date:

Thursday, July 18, 2013

  Actual Average Record
Temperature  
Mean Temperature 62 °F -  
Max Temperature 72 °F 69 °F 82 °F (1993)
Min Temperature 53 °F 51 °F 38 °F (1959)
Degree Days  
Heating Degree Days 2    
Growing Degree Days 12 (Base 50)    
Moisture  
Dew Point 54 °F    
Average Humidity 76    
Maximum Humidity 100    
Minimum Humidity 46    
Precipitation  
Precipitation 0.31 in - - ()
Sea Level Pressure  
Sea Level Pressure 30.09 in    
Wind  
Wind Speed 3 mph (WSW)    
Max Wind Speed 7 mph    
Max Gust Speed -    
Visibility 8 miles    
Events Rain    
Averages and records for this station are not official NWS values.
T = Trace of Precipitation, MM = Missing Value Source: NWS Daily Summary

Daily Weather History Graph

Daily Weather History Graph

Search for Another Location

Airport or City:

Trip Planner

Search our weather history database for the weather conditions in past years. The results will help you decide how hot, cold, wet, or windy it might be!

Date:

Astronomy

Jul. 18, 2013 Rise Set
Actual Time 4:04 AM AKDT 11:42 PM AKDT
Civil Twilight 2:27 AM AKDT 1:22 AM AKDT
Nautical Twilight Sun does not set Sun does not set
Astronomical Twilight Sun does not set Sun does not set
Moon 7:32 PM AKDT (7/18) 12:37 AM AKDT (7/18)
Length of Visible Light 22h 55m
Length of Day
19h 38m
Waxing Gibbous, 79% of the Moon is Illuminated
Jul 18
Waxing Gibbous
Jul 22
Full
Jul 29
Last Quarter
Aug 6
New
Aug 14
First Quarter

Hourly Weather History & Observations

Time (AKDT) Temp. Dew Point Humidity Pressure Visibility Wind Dir Wind Speed Gust Speed Precip Events Conditions
12:55 AM 62.1 °F 52.2 °F 70% 30.11 in 10.0 mi WSW 3.5 mph - N/A   Overcast
1:55 AM 60.6 °F 53.2 °F 77% 30.13 in 10.0 mi Variable 3.5 mph - N/A   Mostly Cloudy
2:55 AM 59.4 °F 54.0 °F 82% 30.13 in 10.0 mi Calm Calm - N/A   Overcast
3:55 AM 57.6 °F 53.6 °F 87% 30.14 in 10.0 mi Calm Calm - N/A   Overcast
4:55 AM 54.9 °F 52.7 °F 92% 30.14 in 10.0 mi Calm Calm - N/A   Mostly Cloudy
5:55 AM 53.4 °F 52.0 °F 95% 30.15 in 10.0 mi Calm Calm - N/A   Mostly Cloudy
6:55 AM 57.2 °F 53.4 °F 87% 30.15 in 10.0 mi Variable 3.5 mph - N/A   Overcast
7:55 AM 59.4 °F 53.8 °F 82% 30.15 in 10.0 mi Variable 4.6 mph - N/A   Overcast
8:55 AM 62.8 °F 53.2 °F 71% 30.14 in 10.0 mi Calm Calm - N/A   Scattered Clouds
9:55 AM 66.9 °F 49.8 °F 54% 30.14 in 10.0 mi Variable 6.9 mph - N/A   Mostly Cloudy
10:55 AM 66.6 °F 52.0 °F 59% 30.13 in 10.0 mi Variable 6.9 mph - N/A   Mostly Cloudy
11:55 AM 69.3 °F 51.4 °F 53% 30.12 in 10.0 mi Variable 3.5 mph - N/A   Scattered Clouds
12:55 PM 70.5 °F 52.0 °F 52% 30.10 in 10.0 mi Variable 5.8 mph - N/A   Scattered Clouds
1:55 PM 72.1 °F 50.9 °F 47% 30.08 in 10.0 mi Calm Calm - N/A   Partly Cloudy
2:55 PM 72.1 °F 50.5 °F 46% 30.06 in 10.0 mi Calm Calm - N/A   Partly Cloudy
3:55 PM 72.3 °F 51.6 °F 48% 30.05 in 10.0 mi Calm Calm - N/A   Overcast
4:55 PM 70.9 °F 50.9 °F 49% 30.05 in 10.0 mi Variable 5.8 mph - N/A   Overcast
5:55 PM 70.0 °F 51.8 °F 52% 30.03 in 10.0 mi Variable 5.8 mph - 0.00 in Rain Light Rain
6:55 PM 68.5 °F 51.3 °F 54% 30.03 in 10.0 mi Variable 5.8 mph - 0.00 in Rain Light Rain
7:55 PM 61.2 °F 56.7 °F 85% 30.05 in 10.0 mi Variable 3.5 mph - 0.02 in Rain Light Rain
8:55 PM 59.2 °F 56.8 °F 92% 30.05 in 5.0 mi Variable 3.5 mph - 0.04 in Rain Light Rain
9:26 PM 59.0 °F 57.2 °F 94% 30.05 in 2.0 mi Variable 3.5 mph - N/A Rain Rain
9:38 PM 59.0 °F 57.2 °F 94% 30.05 in 2.5 mi Variable 3.5 mph - N/A Rain Rain
9:50 PM 59.0 °F 57.2 °F 94% 30.06 in 2.0 mi Calm Calm - N/A Rain Rain
9:55 PM 58.1 °F 56.8 °F 96% 30.05 in 2.0 mi Variable 4.6 mph - 0.22 in Rain Rain
10:05 PM 57.2 °F 57.2 °F 100% 30.06 in 3.0 mi Calm Calm - N/A Rain Light Rain
10:28 PM 59.0 °F 57.2 °F 94% 30.05 in 7.0 mi Calm Calm - N/A Rain Light Rain
10:55 PM 58.3 °F 57.2 °F 96% 30.06 in 8.0 mi Calm Calm - 0.02 in   Overcast
11:01 PM 59.0 °F 57.2 °F 94% 30.06 in 8.0 mi Calm Calm - N/A Rain Light Rain
11:55 PM 58.1 °F 57.2 °F 97% 30.06 in 6.0 mi Calm Calm - 0.01 in   Overcast